User: anonymous   Login
Location: Unspecified
(0.0000°N, 0.0000°E)
Time: 12:37:49
(UTC+00:00)
Language:

GALILEO-FM2 - Orbit

View from above orbital plane
View from above orbital plane
View from above satellite
View from above satellite

Ground track
Ground track

The orbit data is extracted from the following two-line orbital elements,

1 37847U 11060B   17087.52237878 +.00000009 +00000-0 +00000-0 0  9991
2 37847 055.7684 073.9677 0006616 307.5172 254.0878 01.70475826033830
Epoch (UTC): 28 March 2017 12:32:13
Eccentricity: 0.0006616
inclination: 55.7684°
perigee height: 23202 km
apogee height: 23241 km
right ascension of ascending node: 73.9677°
argument of perigee: 307.5172°
revolutions per day: 1.70475826
mean anomaly at epoch: 254.0878°
orbit number at epoch: 3383

The dashed part of the orbit path shows where the satellite is in the earth's shadow,  

DLR